CPA927 ZGHA-VHHH

Flight info

Callsign CPA927
Flight time 1h 31m
Altitude 34000
Route UBM9X/36L UBMOG W615 IDAXI R473 WYN W18 NLG W23 ZUH R473 SIERA SIER7C/07C
Aircraft A359/H-SDE2E3GHIJ1J3J4J5LM1ORWXYZ/LB1D1

Departure

Time 2026-04-30 18:16
Airport Changsha Huanghua International Airport (ZGHA)

Arrival

Time 2026-04-30 19:48
Airport Hong Kong International Airport (VHHH)
Time Latitude Longitude Altitude Speed Heading
2026-04-30 17:58 28.19615 113.21549 224 ft 0 kts 260°
2026-04-30 18:04 28.19616 113.21555 225 ft 2 kts 260°
2026-04-30 18:05 28.19630 113.21614 225 ft 2 kts 232°
2026-04-30 18:06 28.19680 113.21643 225 ft 0 kts 177°
2026-04-30 18:07 28.19684 113.21643 224 ft 0 kts 175°
2026-04-30 18:09 28.19597 113.21648 225 ft 13 kts 177°
2026-04-30 18:10 28.19170 113.21685 224 ft 8 kts 125°
2026-04-30 18:11 28.18833 113.21793 224 ft 22 kts 176°
2026-04-30 18:11 28.18340 113.21824 225 ft 20 kts 176°
2026-04-30 18:12 28.18186 113.21834 225 ft 3 kts 176°
2026-04-30 18:13 28.18158 113.21835 225 ft 8 kts 176°
2026-04-30 18:13 28.18029 113.21844 224 ft 7 kts 176°
2026-04-30 18:14 28.17791 113.21860 224 ft 17 kts 165°
2026-04-30 18:15 28.17777 113.22045 224 ft 5 kts
2026-04-30 18:15 28.18312 113.22012 225 ft 93 kts 356°
2026-04-30 18:16 28.20281 113.21818 816 ft 154 kts 351°
2026-04-30 18:16 28.22469 113.21609 1998 ft 163 kts 359°
2026-04-30 18:17 28.23631 113.21601 2385 ft 174 kts 359°
2026-04-30 18:17 28.24883 113.21571 2717 ft 190 kts 358°
2026-04-30 18:17 28.27757 113.21433 3655 ft 219 kts 357°
2026-04-30 18:18 28.29274 113.21361 4358 ft 223 kts
2026-04-30 18:18 28.30750 113.21922 4835 ft 237 kts 39°
2026-04-30 18:18 28.31676 113.23520 5305 ft 254 kts 76°
2026-04-30 18:18 28.31593 113.25530 5814 ft 269 kts 111°
2026-04-30 18:19 28.30447 113.27222 6543 ft 277 kts 146°
2026-04-30 18:19 28.28702 113.28115 7404 ft 280 kts 161°
2026-04-30 18:19 28.26838 113.28732 8226 ft 284 kts 163°
2026-04-30 18:19 28.24943 113.29350 9042 ft 288 kts 162°
2026-04-30 18:20 28.23025 113.30026 9869 ft 291 kts 161°
2026-04-30 18:20 28.21119 113.30741 10632 ft 296 kts 160°
2026-04-30 18:20 28.19101 113.31531 11122 ft 312 kts 159°
2026-04-30 18:20 28.17014 113.32372 11547 ft 328 kts 159°
2026-04-30 18:21 28.14837 113.33259 11946 ft 344 kts 159°
2026-04-30 18:21 28.12510 113.34214 12324 ft 361 kts 159°
2026-04-30 18:21 28.10110 113.35202 12664 ft 377 kts 159°
2026-04-30 18:21 28.07584 113.36243 12993 ft 393 kts 159°
2026-04-30 18:22 28.05002 113.37308 13535 ft 401 kts 159°
2026-04-30 18:22 27.99740 113.39478 14924 ft 407 kts 159°
2026-04-30 18:22 27.97083 113.40575 15582 ft 410 kts 159°
2026-04-30 18:23 27.94393 113.41684 16227 ft 413 kts 159°
2026-04-30 18:23 27.91709 113.42790 16854 ft 416 kts 159°
2026-04-30 18:23 27.88994 113.43908 17472 ft 419 kts 159°
2026-04-30 18:23 27.86237 113.45037 18078 ft 422 kts 159°
2026-04-30 18:24 27.80704 113.47302 19237 ft 427 kts 159°
2026-04-30 18:24 27.77911 113.48447 19793 ft 430 kts 159°
2026-04-30 18:24 27.75127 113.49589 20339 ft 432 kts 159°
2026-04-30 18:25 27.72282 113.50756 20932 ft 434 kts 159°
2026-04-30 18:25 27.66628 113.53075 22009 ft 438 kts 159°
2026-04-30 18:25 27.63744 113.54256 22512 ft 441 kts 159°
2026-04-30 18:26 27.57957 113.56626 23477 ft 446 kts 159°
2026-04-30 18:26 27.55042 113.57819 23930 ft 449 kts 159°
2026-04-30 18:26 27.52128 113.59010 24369 ft 451 kts 159°
2026-04-30 18:27 27.46170 113.61445 25215 ft 456 kts 160°
2026-04-30 18:27 27.43181 113.62666 25606 ft 459 kts 160°
2026-04-30 18:28 27.37203 113.65105 26341 ft 464 kts 160°
2026-04-30 18:28 27.34180 113.66348 26683 ft 466 kts 160°
2026-04-30 18:28 27.28066 113.68852 27348 ft 471 kts 161°
2026-04-30 18:29 27.24974 113.69966 27664 ft 473 kts 164°
2026-04-30 18:29 27.15251 113.72156 28505 ft 480 kts 172°
2026-04-30 18:30 27.08627 113.73206 29055 ft 483 kts 172°
2026-04-30 18:30 27.02009 113.74254 29824 ft 482 kts 174°
2026-04-30 18:31 26.98668 113.74792 30022 ft 486 kts 173°
2026-04-30 18:31 26.91963 113.75845 30296 ft 496 kts 173°
2026-04-30 18:32 26.85182 113.76914 30872 ft 497 kts 173°
2026-04-30 18:32 26.81816 113.77447 31249 ft 496 kts 173°
2026-04-30 18:32 26.75046 113.78638 31986 ft 494 kts 169°
2026-04-30 18:33 26.71712 113.79469 32331 ft 493 kts 167°
2026-04-30 18:33 26.65162 113.81490 32892 ft 494 kts 165°
2026-04-30 18:33 26.61879 113.82525 33129 ft 495 kts 165°
2026-04-30 18:34 26.58544 113.83571 33363 ft 496 kts 165°
2026-04-30 18:34 26.51926 113.85638 33816 ft 497 kts 165°
2026-04-30 18:34 26.48622 113.86660 34027 ft 498 kts 166°
2026-04-30 18:35 26.45252 113.87655 34093 ft 499 kts 166°
2026-04-30 18:35 26.38558 113.89583 34104 ft 499 kts 166°
2026-04-30 18:36 26.28549 113.92461 34106 ft 499 kts 166°
2026-04-30 18:37 26.18554 113.95339 34106 ft 499 kts 166°
2026-04-30 18:37 26.11820 113.97274 34106 ft 499 kts 166°
2026-04-30 18:38 26.05092 113.99204 34106 ft 499 kts 166°
2026-04-30 18:38 25.98426 114.01141 34106 ft 499 kts 166°
2026-04-30 18:39 25.91716 114.03152 34106 ft 499 kts 166°
2026-04-30 18:39 25.85105 114.05122 34105 ft 499 kts 166°
2026-04-30 18:40 25.78398 114.07106 34100 ft 500 kts 166°
2026-04-30 18:40 25.71711 114.09084 34092 ft 500 kts 166°
2026-04-30 18:41 25.65010 114.11066 34086 ft 500 kts 166°
2026-04-30 18:41 25.58336 114.13039 34082 ft 500 kts 166°
2026-04-30 18:42 25.51639 114.15015 34081 ft 500 kts 166°
2026-04-30 18:42 25.41563 114.17983 34080 ft 500 kts 166°
2026-04-30 18:45 25.07778 114.25940 34077 ft 500 kts 180°
2026-04-30 18:45 25.04340 114.25818 34077 ft 502 kts 184°
2026-04-30 18:46 24.97398 114.24798 34079 ft 505 kts 191°
2026-04-30 18:46 24.90504 114.23278 34080 ft 505 kts 191°
2026-04-30 18:47 24.83778 114.21798 34080 ft 505 kts 191°
2026-04-30 18:47 24.76911 114.20303 34080 ft 505 kts 191°
2026-04-30 18:48 24.70024 114.18810 34080 ft 505 kts 191°
2026-04-30 18:48 24.63188 114.17328 34080 ft 505 kts 191°
2026-04-30 18:49 24.56322 114.15841 34080 ft 505 kts 191°
2026-04-30 18:49 24.49437 114.14350 34080 ft 505 kts 191°
2026-04-30 18:50 24.42531 114.12856 34080 ft 505 kts 191°
2026-04-30 18:50 24.35677 114.11345 34080 ft 505 kts 192°
2026-04-30 18:51 24.28922 114.09399 34080 ft 505 kts 195°
2026-04-30 18:51 24.22208 114.07348 34080 ft 505 kts 195°
2026-04-30 18:52 24.15480 114.05295 34080 ft 505 kts 195°
2026-04-30 18:52 24.08753 114.03249 34080 ft 505 kts 195°
2026-04-30 18:53 24.02101 114.01229 34080 ft 505 kts 195°
2026-04-30 18:53 23.95377 113.99190 34080 ft 505 kts 195°
2026-04-30 18:54 23.88904 113.97229 34079 ft 505 kts 195°
2026-04-30 18:54 23.82082 113.95173 34080 ft 505 kts 195°
2026-04-30 18:55 23.75335 113.93138 34080 ft 505 kts 195°
2026-04-30 18:55 23.65291 113.90104 34080 ft 505 kts 195°
2026-04-30 18:56 23.55388 113.87115 34080 ft 505 kts 195°
2026-04-30 18:57 23.45449 113.84122 34080 ft 505 kts 195°
2026-04-30 18:57 23.39000 113.82181 34080 ft 505 kts 195°
2026-04-30 18:58 23.29591 113.79346 34079 ft 505 kts 195°
2026-04-30 18:59 23.19710 113.76372 34078 ft 506 kts 195°
2026-04-30 19:00 23.06871 113.72513 34073 ft 506 kts 195°
2026-04-30 19:01 22.93156 113.68394 34061 ft 508 kts 195°
2026-04-30 19:02 22.83189 113.65399 34056 ft 509 kts 195°
2026-04-30 19:02 22.76487 113.63360 33910 ft 509 kts 195°
2026-04-30 19:03 22.69783 113.61314 33264 ft 506 kts 195°
2026-04-30 19:03 22.63184 113.59302 32030 ft 502 kts 195°
2026-04-30 19:04 22.56623 113.57372 30519 ft 504 kts 191°
2026-04-30 19:04 22.49810 113.56844 28734 ft 509 kts 181°
2026-04-30 19:05 22.43009 113.56718 27497 ft 500 kts 181°
2026-04-30 19:05 22.36200 113.56541 26211 ft 493 kts 181°
2026-04-30 19:06 22.29508 113.56324 25021 ft 484 kts 182°
2026-04-30 19:06 22.26219 113.56211 24485 ft 478 kts 182°
2026-04-30 19:06 22.19732 113.55984 23484 ft 467 kts 182°
2026-04-30 19:07 22.13321 113.55759 22510 ft 456 kts 182°
2026-04-30 19:07 22.10222 113.55650 22038 ft 451 kts 182°
2026-04-30 19:08 22.04052 113.55435 21088 ft 442 kts 182°
2026-04-30 19:08 21.98042 113.54748 20136 ft 433 kts 194°
2026-04-30 19:08 21.95193 113.53790 19683 ft 427 kts 203°
2026-04-30 19:09 21.89934 113.51221 19300 ft 402 kts 206°
2026-04-30 19:09 21.87439 113.49955 19165 ft 390 kts 206°
2026-04-30 19:09 21.85043 113.48751 19035 ft 378 kts 206°
2026-04-30 19:10 21.80413 113.46440 18806 ft 355 kts 206°
2026-04-30 19:10 21.76116 113.44306 18624 ft 332 kts 206°
2026-04-30 19:11 21.74051 113.43283 18548 ft 323 kts 206°
2026-04-30 19:11 21.69827 113.42020 18065 ft 321 kts 174°
2026-04-30 19:11 21.67703 113.42708 17744 ft 319 kts 150°
2026-04-30 19:12 21.66000 113.44166 17454 ft 316 kts 135°
2026-04-30 19:12 21.64472 113.45853 17163 ft 315 kts 133°
2026-04-30 19:12 21.62956 113.47566 16871 ft 314 kts 133°
2026-04-30 19:13 21.59980 113.50935 16253 ft 312 kts 125°
2026-04-30 19:13 21.59346 113.55212 15119 ft 316 kts 67°
2026-04-30 19:13 21.60511 113.57193 14757 ft 310 kts 43°
2026-04-30 19:14 21.62251 113.58462 14403 ft 305 kts 21°
2026-04-30 19:14 21.64238 113.59232 14068 ft 302 kts 17°
2026-04-30 19:14 21.66193 113.59940 13703 ft 302 kts 18°
2026-04-30 19:14 21.68171 113.60671 13348 ft 301 kts 18°
2026-04-30 19:15 21.70127 113.61416 13003 ft 299 kts 18°
2026-04-30 19:15 21.74009 113.62933 12312 ft 297 kts 19°
2026-04-30 19:15 21.75899 113.63682 11974 ft 295 kts 19°
2026-04-30 19:16 21.77807 113.64441 11633 ft 294 kts 19°
2026-04-30 19:16 21.79715 113.65202 11297 ft 292 kts 19°
2026-04-30 19:16 21.83464 113.66701 10631 ft 289 kts 19°
2026-04-30 19:17 21.85269 113.67423 10310 ft 287 kts 19°
2026-04-30 19:17 21.88942 113.68893 9659 ft 284 kts 19°
2026-04-30 19:17 21.90783 113.69632 9331 ft 283 kts 19°
2026-04-30 19:18 21.93827 113.70851 8789 ft 280 kts 19°
2026-04-30 19:18 21.96203 113.71803 8366 ft 278 kts 20°
2026-04-30 19:18 21.97971 113.72513 8053 ft 276 kts 20°
2026-04-30 19:19 21.99723 113.73216 7790 ft 273 kts 20°
2026-04-30 19:19 22.01467 113.73917 7440 ft 273 kts 20°
2026-04-30 19:19 22.04871 113.75284 6813 ft 272 kts 20°
2026-04-30 19:20 22.06631 113.75991 6496 ft 270 kts 20°
2026-04-30 19:20 22.08337 113.76676 6192 ft 269 kts 20°
2026-04-30 19:20 22.11830 113.77097 5545 ft 268 kts 341°
2026-04-30 19:21 22.13502 113.76321 5281 ft 265 kts 335°
2026-04-30 19:21 22.16746 113.74638 4866 ft 254 kts 335°
2026-04-30 19:22 22.19853 113.73061 4490 ft 244 kts 336°
2026-04-30 19:22 22.24289 113.73940 3784 ft 232 kts 39°
2026-04-30 19:23 22.27493 113.77479 3162 ft 221 kts 70°
2026-04-30 19:24 22.28240 113.80527 2450 ft 204 kts 74°
2026-04-30 19:24 22.28619 113.81959 2089 ft 197 kts 72°
2026-04-30 19:24 22.29416 113.84626 1604 ft 180 kts 71°
2026-04-30 19:25 22.30513 113.88077 1430 ft 175 kts 70°
2026-04-30 19:26 22.31299 113.90515 2823 ft 186 kts 70°
2026-04-30 19:26 22.32202 113.93306 3774 ft 206 kts 70°
2026-04-30 19:26 22.32666 113.94740 3984 ft 206 kts 68°
2026-04-30 19:27 22.34238 113.97221 4000 ft 204 kts 49°
2026-04-30 19:27 22.36036 113.99534 4025 ft 206 kts 51°
2026-04-30 19:28 22.36940 114.00745 4426 ft 212 kts 51°
2026-04-30 19:28 22.38721 114.03193 5723 ft 211 kts 51°
2026-04-30 19:29 22.40511 114.05684 5994 ft 210 kts 51°
2026-04-30 19:29 22.41404 114.06930 6000 ft 210 kts 51°
2026-04-30 19:30 22.44028 114.10590 6005 ft 210 kts 51°
2026-04-30 19:30 22.45807 114.13065 6013 ft 240 kts 51°
2026-04-30 19:31 22.47841 114.15897 6005 ft 249 kts 52°
2026-04-30 19:31 22.48609 114.17529 5997 ft 251 kts 77°
2026-04-30 19:31 22.47865 114.20875 6001 ft 256 kts 132°
2026-04-30 19:32 22.46491 114.21896 6002 ft 258 kts 161°
2026-04-30 19:32 22.44640 114.22047 6002 ft 259 kts 193°
2026-04-30 19:32 22.43018 114.21264 6013 ft 259 kts 212°
2026-04-30 19:32 22.41545 114.20246 6007 ft 258 kts 214°
2026-04-30 19:33 22.40094 114.19213 6005 ft 258 kts 213°
2026-04-30 19:33 22.38601 114.18165 6005 ft 258 kts 213°
2026-04-30 19:33 22.37121 114.17103 6000 ft 258 kts 220°
2026-04-30 19:33 22.35980 114.15736 6003 ft 257 kts 235°
2026-04-30 19:34 22.35020 114.14197 5984 ft 247 kts 237°
2026-04-30 19:34 22.34115 114.12697 5842 ft 241 kts 237°
2026-04-30 19:34 22.32322 114.09841 5567 ft 229 kts 236°
2026-04-30 19:35 22.31450 114.08504 5435 ft 223 kts 235°
2026-04-30 19:35 22.30596 114.07210 5300 ft 218 kts 235°
2026-04-30 19:35 22.29756 114.05949 5124 ft 215 kts 235°
2026-04-30 19:35 22.28899 114.04667 4899 ft 214 kts 235°
2026-04-30 19:36 22.28035 114.03378 4667 ft 214 kts 234°
2026-04-30 19:36 22.27192 114.02125 4455 ft 212 kts 235°
2026-04-30 19:36 22.25491 113.99595 3997 ft 212 kts 235°
2026-04-30 19:37 22.24630 113.98312 3694 ft 216 kts 234°
2026-04-30 19:37 22.23757 113.97018 3454 ft 216 kts 234°
2026-04-30 19:37 22.22881 113.95713 3223 ft 215 kts 234°
2026-04-30 19:37 22.22005 113.94418 3037 ft 213 kts 234°
2026-04-30 19:38 22.21153 113.93153 3009 ft 209 kts 234°
2026-04-30 19:38 22.20312 113.91902 3007 ft 209 kts 234°
2026-04-30 19:38 22.19451 113.90630 3005 ft 209 kts 234°
2026-04-30 19:38 22.18608 113.89383 3003 ft 208 kts 234°
2026-04-30 19:39 22.17755 113.88113 3004 ft 209 kts 234°
2026-04-30 19:39 22.16905 113.86858 3004 ft 208 kts 234°
2026-04-30 19:39 22.16063 113.85615 3004 ft 208 kts 235°
2026-04-30 19:39 22.15213 113.84356 3004 ft 207 kts 235°
2026-04-30 19:40 22.14370 113.83103 3003 ft 208 kts 234°
2026-04-30 19:40 22.13516 113.81835 3003 ft 208 kts 234°
2026-04-30 19:40 22.12741 113.80585 2861 ft 205 kts 247°
2026-04-30 19:40 22.12421 113.79102 2592 ft 205 kts 272°
2026-04-30 19:41 22.12692 113.77625 2358 ft 204 kts 295°
2026-04-30 19:41 22.13508 113.76365 2056 ft 214 kts 319°
2026-04-30 19:41 22.14710 113.75542 2005 ft 202 kts 335°
2026-04-30 19:41 22.15947 113.74937 1991 ft 190 kts 338°
2026-04-30 19:42 22.17147 113.74373 1919 ft 185 kts 337°
2026-04-30 19:42 22.18309 113.73817 1821 ft 185 kts 337°
2026-04-30 19:42 22.19482 113.73247 1720 ft 184 kts 336°
2026-04-30 19:42 22.20638 113.72694 1620 ft 183 kts 343°
2026-04-30 19:43 22.21869 113.72701 1583 ft 181 kts 25°
2026-04-30 19:43 22.22925 113.73360 1674 ft 170 kts 34°
2026-04-30 19:43 22.23856 113.74039 1701 ft 163 kts 35°
2026-04-30 19:44 22.25709 113.75388 1703 ft 162 kts 34°
2026-04-30 19:44 22.26594 113.76112 1635 ft 162 kts 53°
2026-04-30 19:44 22.27043 113.77193 1633 ft 162 kts 70°
2026-04-30 19:44 22.27410 113.78330 1618 ft 162 kts 70°
2026-04-30 19:45 22.27765 113.79439 1594 ft 153 kts 71°
2026-04-30 19:45 22.28102 113.80496 1595 ft 149 kts 70°
2026-04-30 19:45 22.28422 113.81495 1599 ft 149 kts 70°
2026-04-30 19:45 22.28752 113.82521 1448 ft 149 kts 70°
2026-04-30 19:46 22.29083 113.83552 1260 ft 148 kts 71°
2026-04-30 19:46 22.29415 113.84587 1074 ft 148 kts 70°
2026-04-30 19:46 22.29745 113.85608 877 ft 143 kts 71°
2026-04-30 19:46 22.30060 113.86590 693 ft 139 kts 71°
2026-04-30 19:47 22.30365 113.87537 519 ft 139 kts 71°
2026-04-30 19:47 22.30574 113.88189 400 ft 138 kts 70°
2026-04-30 19:47 22.30980 113.89448 167 ft 139 kts 70°
2026-04-30 19:47 22.31287 113.90399 39 ft 130 kts 71°
2026-04-30 19:48 22.31528 113.91150 37 ft 77 kts 71°
2026-04-30 19:48 22.31626 113.91453 37 ft 20 kts 71°
2026-04-30 19:48 22.31653 113.91597 37 ft 20 kts 86°
2026-04-30 19:48 22.31649 113.91705 37 ft 7 kts 99°
2026-04-30 19:49 22.31646 113.91726 37 ft 3 kts 99°
2026-04-30 19:49 22.31639 113.91769 37 ft 2 kts 99°
2026-04-30 19:49 22.31637 113.91782 37 ft 2 kts 100°
2026-04-30 19:50 22.31631 113.91814 37 ft 5 kts 101°
2026-04-30 19:50 22.31621 113.91872 37 ft 11 kts 101°
2026-04-30 19:50 22.31612 113.91956 37 ft 12 kts 84°
2026-04-30 19:50 22.31640 113.92065 37 ft 18 kts 70°
2026-04-30 19:51 22.31685 113.92201 37 ft 18 kts 71°
2026-04-30 19:51 22.31730 113.92340 37 ft 13 kts 71°
2026-04-30 19:51 22.31719 113.92412 37 ft 7 kts 137°
2026-04-30 19:51 22.31659 113.92444 37 ft 11 kts 158°
2026-04-30 19:52 22.31615 113.92492 37 ft 10 kts 120°
2026-04-30 19:52 22.31582 113.92561 37 ft 11 kts 116°
2026-04-30 19:52 22.31547 113.92636 37 ft 10 kts 116°
2026-04-30 19:52 22.31508 113.92723 37 ft 13 kts 116°
2026-04-30 19:53 22.31493 113.92788 37 ft 5 kts 84°
2026-04-30 19:53 22.31501 113.92830 37 ft 9 kts 75°
2026-04-30 19:53 22.31524 113.92905 37 ft 13 kts 70°
2026-04-30 19:53 22.31523 113.92968 37 ft 7 kts 129°
2026-04-30 19:54 22.31496 113.92984 37 ft 3 kts 158°
2026-04-30 19:54 22.31464 113.92998 37 ft 3 kts 160°
2026-04-30 19:54 22.31452 113.93002 37 ft 0 kts 160°